Regional Weather Roundup
Issued by NWS

Home | Current Version | Previous Version | Text Only | Print | Product List | Glossary On
Versions: 1 2 3 4 5 6 7 8 9 10 11 12 13 14 15 16 17 18 19 20 21 22 23 24 25 26 27 28 29 30 31 32 33 34 35 36 37 38 39 40 41 42 43 44 45 46 47 48 49 50
000
ASUS43 KBIS 231131
RWRND
NORTH DAKOTA REGIONAL WEATHER ROUNDUP
NATIONAL WEATHER SERVICE EASTERN NORTH DAKOTA/GRAND FORKS ND
600 AM CDT FRI JUN 23 2017

  NOTE: "FAIR" INDICATES FEW OR NO CLOUDS BELOW 12,000 FEET WITH NO
  SIGNIFICANT WEATHER AND/OR OBSTRUCTIONS TO VISIBILITY.

NDZ001>003-009>011-017-231200-
...NORTHWEST NORTH DAKOTA...

CITY           SKY/WX    TMP DP  RH WIND       PRES   REMARKS
WILLISTON      CLOUDY    48  42  80 W13       30.10R
MINOT          CLOUDY    53  42  66 NW22G31   29.96R
MINOT AFB      CLOUDY    53  42  67 NW26      29.95R
$$

NDZ018>021-031>035-040>046-231200-
...SOUTHWEST NORTH DAKOTA...

CITY           SKY/WX    TMP DP  RH WIND       PRES   REMARKS
BISMARCK       CLOUDY    56  47  71 NW17G28   29.99R
DICKINSON      MOCLDY    48  41  76 NW21G28   30.07R
GARRISON         N/A     49  44  83 NW14      29.99R
HETTINGER      MOCLDY    51  42  71 NW20      30.11R
$$

NDZ004>008-012>016-024-026-027-054-231200-
...NORTHEAST NORTH DAKOTA...

CITY           SKY/WX    TMP DP  RH WIND       PRES   REMARKS
GRAND FORKS    MOCLDY    60  53  77 NW17G23   29.76R
GRAND FORKS AF MOCLDY    59  52  77 NW13      29.78R
DEVILS LAKE    CLOUDY    56  48  74 NW24G31   29.84R
$$

NDZ022-023-025-028>030-036>039-047>053-231200-
...SOUTHEAST NORTH DAKOTA...

CITY           SKY/WX    TMP DP  RH WIND       PRES   REMARKS
JAMESTOWN      CLOUDY    57  49  74 NW22G30   29.87R
FARGO          CLOUDY    61  53  75 NW14      29.77R
WAHPETON       FAIR      54  48  82 W12       29.79S
$$



USA.gov is the U.S. government's official web portal to all federal, state and local government web resources and services.